Content
SEND FEEDBACK

Daily
Averages
Monthly
Summary
United States of America

WEATHERFORD, TEXAS


Home > North America > United States > Texas
Elevation: 1106 feet     Latitude: 32 46N     Longitude: 097 49W

WEATHER
 
SELECT A DAY
Number of Records: 174,658;   Date Range: 1/1/95 - 9/16/14
 
SHARE

PRINT THIS DATA

[ ← Previous Day ]
WEATHER ALMANAC - FEBRUARY 13, 2013
[ Next Day → ]
[ °C ]   °F
Weather ElementAverageHighLow
Temperature41.8 °F59 °F (3:53 pm) (11:53 pm)
Dewpoint29.3 °F35.1 °F (12:53 am) (7:00 pm)
Humidity66 %96 % (6:53 am)23 % (3:53 pm)
Barometer30.07 in30.14 in (8:53 am)30.00 in (5:53 pm)
Wind Speed7 mph13.8 mph (4:15 am)
Weather ElementAverage
Visibility9.6 mi
Wind DirectionWSW (239.3 °)

Weather ElementTotal
Precipitation---
Heating Degree Days35.5 (Base 65)
Averaged from 29 records on February 13, 2013
WEATHER CONDITIONS BREAKOUT
WIND DIRECTION BREAKOUT
WEATHER BY HOUR - FEBRUARY 13, 2013
[ °C ]   °F
Local TimeTemperatureDewpointHumidityBarometerVisibilityWind DirectionWind SpeedGust SpeedPrecipitationEventsConditions
12:53 AM37.9 °F35.1 °F89 %30.08 in10.0 miNW (310°)12.7 mphOvercast
1:51 AM37.4 °F33.8 °F87 %30.09 in10.0 miNW (310°)12.7 mphOvercast
1:53 AM37.9 °F34.0 °F86 %30.09 in10.0 miNW (310°)11.5 mphOvercast
2:53 AM37.9 °F33.1 °F83 %30.09 in10.0 miNW (320°)11.5 mphOvercast
3:26 AM37.4 °F32.0 °F81 %30.08 in10.0 miNW (320°)8.1 mphScattered Clouds
3:53 AM37.0 °F32.0 °F82 %30.08 in10.0 miNW (320°)9.2 mphScattered Clouds
4:01 AM37.4 °F32.0 °F81 %30.08 in10.0 miNW (320°)9.2 mphMostly Cloudy
4:15 AM37.4 °F32.0 °F81 %30.08 in10.0 miNW (320°)13.8 mphOvercast
4:53 AM36.0 °F32.0 °F86 %30.09 in10.0 miNW (310°)10.4 mphMostly Cloudy
5:34 AM33.8 °F32.0 °F93 %30.08 in10.0 miNW (310°)5.8 mphScattered Clouds
5:53 AM33.1 °F30.9 °F92 %30.09 in8.0 miNW (320°)5.8 mphClear
6:53 AM32.0 °F30.9 °F96 %30.11 in7.0 miWNW (300°)4.6 mphClear
7:53 AM33.1 °F30.9 °F92 %30.12 in5.0 miWNW (290°)4.6 mphClear
8:53 AM37.0 °F33.1 °F86 %30.14 in9.0 miWNW (290°)5.8 mphClear
9:53 AM41.0 °F34.0 °F76 %30.14 in10.0 miWest (260°)5.8 mphClear
10:53 AM46.0 °F34.0 °F63 %30.14 in10.0 miWNW (300°)4.6 mphClear
11:53 AM50.0 °F33.1 °F52 %30.12 in10.0 miWNW (290°)5.8 mphClear
12:53 PM53.1 °F33.1 °F47 %30.09 in10.0 miCalmClear
1:53 PM55.9 °F27.0 °F33 %30.04 in10.0 miVariable3.5 mphClear
2:53 PM57.9 °F25.0 °F28 %30.02 in10.0 miWNW (290°)8.1 mphClear
3:53 PM59.0 °F21.0 °F23 %30.01 in10.0 miWest (270°)5.8 mphClear
4:53 PM57.9 °F21.9 °F25 %30.01 in10.0 miWNW (290°)8.1 mphClear
5:53 PM55.0 °F25.0 °F31 %30.00 in10.0 miWest (270°)3.5 mphClear
6:53 PM52.0 °F23.0 °F32 %30.01 in10.0 miCalmClear
7:53 PM46.0 °F26.1 °F46 %30.01 in10.0 miSouth (170°)6.9 mphClear
8:53 PM45.0 °F30.0 °F56 %30.02 in10.0 miSSE (160°)6.9 mphClear
9:53 PM46.0 °F30.9 °F56 %30.03 in10.0 miSSE (150°)9.2 mphClear
10:53 PM42.1 °F30.9 °F65 %30.03 in10.0 miSE (140°)10.4 mphClear
11:53 PM0.0 °F0.0 °F30.04 inCalm
Hourly data recorded from KMWL, located miles away from Weatherford, Texas







STORIES FROM OUR PARTNERS